Tracking 19634 objects as of 23-May-2019
HD Live streaming from Space Station
objects crossing your sky now

COSMOS 192

Track COSMOS 192 now!
10-day predictions
COSMOS 192 is classified as:


NORAD ID: 3047
Int'l Code: 1967-116A
Perigee: 708.0 km
Apogee: 721.1 km
Inclination: 74.0 °
Period: 98.9 minutes
Semi major axis: 7085 km
RCS: 3.2027 m2 (large)
Launch date: November 23, 1967
Source: Commonwealth of Independent States (former USSR) (CIS)
Launch site: PLESETSK MISSILE AND SPACE COMPLEX (PKMTR)
aabbcc
Your satellite tracking list
Your tracking list is empty




NASA's NSSDC Master Catalog

Two Line Element Set (TLE):
1  3047U 67116A   19142.40597724  .00000019  00000-0  11124-4 0  9993
2  3047  74.0127 241.3457 0009257 316.5020  43.5412 14.55604322723129
Source of the keplerian elements: AFSPC